Regional Weather Roundup
Issued by NWS

Home | Current Version | Previous Version | Text Only | Print | Product List | Glossary On
Versions: 1 2 3 4 5 6 7 8 9 10 11 12 13 14 15 16 17 18 19 20 21 22 23 24 25 26 27 28 29 30 31 32 33 34 35 36 37 38 39 40 41 42 43 44 45 46 47 48 49 50
466
ASUS43 KMKX 092321
RWRWI

WISCONSIN REGIONAL WEATHER ROUNDUP
NATIONAL WEATHER SERVICE MILWAUKEE/SULLIVAN WI
500 PM CST TUE FEB 09 2016

NOTE: "FAIR" INDICATES FEW OR NO CLOUDS BELOW 12,000 FEET WITH NO
SIGNIFICANT WEATHER AND/OR OBSTRUCTIONS TO VISIBILITY.

WIZ001-002-006>008-014>016-023>028-100000-
NORTHWEST WISCONSIN

CITY           SKY/WX    TMP DP  RH WIND       PRES   REMARKS
SUPERIOR ARPT  CLEAR     12  -3  50 N9        30.12R WCI   0
ASHLAND        CLOUDY    12   2  64 NW12      30.06R WCI  -2
HAYWARD        MOCLDY    12  -1  56 NW8       30.03R WCI   0
SIREN          CLEAR     13  -5  44 N5        30.08S WCI   5
CUMBERLAND     CLEAR     12  -4  48 NW16      30.02R WCI  -4
RICE LAKE      CLEAR     14  -3  46 N10       30.04S WCI   1
CHETEK         CLEAR     12  -2  53 N9G17     30.03R WCI   0
LADYSMITH      CLOUDY    12   2  64 N14G20    30.01S WCI  -3
EAU CLAIRE     CLEAR     14  -3  47 NW10      30.03R WCI   1
MENOMONIE      CLEAR     16  -3  42 NW17G23   30.05R WCI   0
NEW RICHMOND   CLEAR     13  -1  53 NW16G24   30.07S WCI  -3
OSCEOLA        CLEAR     14  -1  51 NW12G17   30.12S WCI   0
$$

WIZ003>005-009-010-017-018-100000-
NORTH CENTRAL WISCONSIN

CITY           SKY/WX    TMP DP  RH WIND       PRES   REMARKS
MANITOWISH WTR LGT SNOW   8   3  81 NW13      29.92R WCI  -8
ARBOR VITAE    CLOUDY    11   5  74 N16G22    29.91R HAZE    WCI  -5
WOODRUFF       CLOUDY    11   5  74 N16G22    29.91R HAZE    WCI  -5
RHINELANDER    CLOUDY    10  -1  61 N14G25    29.89R WCI  -6
EAGLE RIVER    CLOUDY     9   0  67 N16G28    29.89R HAZE    WCI  -8
LAND O LAKES   LGT SNOW  10   4  78 NW9       29.89R WCI  -4
PHILLIPS       CLOUDY     8   1  72 NW13G18   29.96R WCI  -8
TOMAHAWK       CLOUDY    10   1  68 NW12      29.93R WCI  -5
MEDFORD        CLOUDY     9   1  68 NW18G24   29.93R WCI  -9
MERRILL        CLOUDY    11   2  65 N17G23    29.93R WCI  -6
$$

WIZ029-030-035-036-043>047-100000-
CENTRAL WISCONSIN

CITY           SKY/WX    TMP DP  RH WIND       PRES   REMARKS
WAUSAU         CLOUDY    14   2  58 NW14G23   29.90R WCI  -1
MOSINEE        CLOUDY    12   3  67 NW18G25   29.92R WCI  -5
MARSHFIELD     MOCLDY    12   0  58 NW15      29.93R WCI  -4
STEVENS POINT  CLOUDY    13   2  62 NW12G17   29.92R WCI  -1
WAUPACA        CLOUDY    19   8  61 NW13      29.91R WCI   6
WAUTOMA        CLOUDY    15   5  64 NW14      29.93R WCI   0
WISC RAPIDS    CLOUDY    13   0  56 N9G24     29.95R WCI   1
CAMP DOUGLAS   PTCLDY    12   0  57 NW14      29.97R WCI  -3
$$

WIZ011>013-019>022-031-037>040-048>050-100000-
NORTHEAST WISCONSIN

CITY           SKY/WX    TMP DP  RH WIND       PRES   REMARKS
ANTIGO         CLOUDY    11   2  67 N22       29.86R WCI  -9
SHAWANO        MOCLDY    18   7  62 N9        29.90R WCI   7
OCONTO         CLOUDY    15  10  80 N13G18    29.89R WCI   1
STURGEON BAY   CLOUDY    14   7  73 NW15      29.88R WCI  -1
GREEN BAY      CLOUDY    17   5  59 N16       29.88R WCI   2
MANITOWOC      LGT SNOW  18  10  71 N17G25    29.87R WCI   3
APPLETON       LGT SNOW  16   9  73 NW14      29.87R WCI   1
CLINTONVILLE   CLOUDY    18   9  68 N8G16     29.90R WCI   7
OSHKOSH        CLOUDY    18  10  71 NW13      29.88R HAZE    WCI   5
$$

WIZ032>034-041-042-053>061-100000-
SOUTHWEST WISCONSIN

CITY           SKY/WX    TMP DP  RH WIND       PRES   REMARKS
LA CROSSE      CLEAR     14   1  56 NW16      30.04R WCI  -2
SPARTA         CLEAR     13   0  56 NW17G25   30.02R WCI  -3
VIROQUA        CLEAR     11  -2  56 NW14      29.97R WCI  -5
BOSCOBEL       CLEAR     17  -1  45 NW15      30.01R WCI   2
PRAIRIE DU CHI CLEAR     15   0  52 NW9       30.03R WCI   3
PLATTEVILLE    PTCLDY    14   4  64 NW12      29.97R WCI   0
$$

WIZ056-057-062-063-064-067-068-100000-
SOUTH CENTRAL WISCONSIN

CITY           SKY/WX    TMP DP  RH WIND       PRES   REMARKS
REEDSBURG      CLOUDY    13   1  60 NW14      29.96R WCI  -2
BARABOO/DELLS  CLOUDY    14   2  60 NW9G20    29.94R WCI   1
LONE ROCK      CLEAR     15   0  51 NW9       29.99R WCI   3
MINERAL POINT  MOCLDY    18   3  53 NW10G18   29.94R WCI   6
MADISON        CLOUDY    15   4  61 NW13      29.93R WCI   1
MIDDLETON      CLOUDY    15   4  61 NW17      29.94R WCI  -1
WATERTOWN      CLOUDY    16   7  67 NW13      29.89R WCI   2
MONROE         MOCLDY    14   5  67 NW13G20   29.92R WCI   0
JANESVILLE     MOCLDY    18   7  62 NW14G20   29.92R WCI   4
$$

WIZ051-052-058>065-066-070>072-100000-
SOUTHEAST WISCONSIN

CITY           SKY/WX    TMP DP  RH WIND       PRES   REMARKS
MILWAUKEE      LGT SNOW  17   8  67 NW10      29.88R WCI   5
WAUKESHA       LGT SNOW  12   7  79 NW12G20   29.89R WCI  -2
MILWAUKEE/TIMM MOCLDY    16   7  67 NW12      29.88R WCI   3
RACINE         FLURRIES  17   7  64 NW9       29.90R WCI   6
BURLINGTON     LGT SNOW  14   8  76 NW10      29.89R WCI   1
KENOSHA        FLURRIES  16   7  67 NW14G20   29.89R WCI   2
FOND DU LAC    MIX PCPN  18  10  71 NW14      29.88R WCI   4
SHEBOYGAN      LGT SNOW  17  11  77 N9        29.86R WCI   6
WEST BEND      FLURRIES  18  10  73 CALM      29.86R
JUNEAU         FLURRIES  15   7  69 W10       29.90R WCI   2
$$

LSZ147-162-100000-
LAKE SUPERIOR

STATION/POSITION TIME  TEMP    WIND        PRES    WAVE
                       AIR SEA DIR/SP/G            HT/PER
                 (UTC) (F)     (DEG/KT/KT) (MB)    (FT/S)
DEVILS ISLAND    2300   11     330/ 21/ 26 1019.9R
SAXON HARBOR     2240   13                 1017.3R
$$

LMZ867-665-643>646-100000-
LAKE MICHIGAN

STATION/POSITION TIME  TEMP    WIND        PRES    WAVE
                       AIR SEA DIR/SP/G            HT/PER
                 (UTC) (F)     (DEG/KT/KT) (MB)    (FT/S)
CHAMBERS ISLAND  2200   16     310/ 19/ 23 1010.5R
ALGOMA LAKESHORE 2241          320/ 16/ 25   N/A
KEWAUNEE LAKESHO 2300   16     350/ 17/ 24 1010.5R
SHEBOYGAN LAKESH 2300   18     320/ 15/ 17 1012.9R
PORT WASHINGTON  2200   18     300/ 11/ 19 1012.2
MILWAUKEE LAKESH 2310   18     300/ 12/ 15   N/A
KENOSHA   LAKESH 2300   17     310/ 12/ 17 1012.2R
$$

TC  - TEMPERATURE IN CELSIUS
VSB - VISIBILITY IN STATUTE MILES
WCI - WIND CHILL INDEX
HX  - HEAT INDEX





USA.gov is the U.S. government's official web portal to all federal, state and local government web resources and services.